[[{"header":{"parameterUnit":"m.s-1","parameterCategory":1,"la1":30.2991,"la2":30.254,"lo1":-89.0895,"lo2":-89.0444,"dy":0.0017,"dx":0.0017,"nx":28,"ny":28,"refTime":"2025-04-13T03:00:00:Z","depth":0,"parameterNumber":2,"parameterNumberName":"U-component_of_WINDS"},"data":[0,0,0,0,0,0,0,0,0,0,0,0,0,0,0,0,0,0,0,0,0,0,0,0,0,0,0,0,0,0,0,0,0,0,0,0,0,0,0,0,0,0,0,0,0,0,0,0,0,0,0,0,0,0,0,0,0,0,-2.102,-2.1021,0,-2.1069,-2.107,-2.1071,-2.1006,-2.1004,-2.1001,-2.0999,-2.1052,-2.1055,-2.1059,0,0,0,0,0,0,0,0,0,0,0,0,0,-2.0871,-2.0874,-2.102,-2.1021,-2.1021,-2.1069,-2.107,-2.1071,-2.1006,-2.1004,-2.1001,-2.0998,-2.1051,-2.1055,-2.1059,0,0,0,0,0,0,0,0,0,0,0,0,0,-2.093,-2.0875,-2.102,-2.0995,-2.0993,-2.1069,-2.107,-2.1071,-2.1007,-2.1004,-2.1,-2.0997,-2.1049,-2.1055,-2.106,-2.1163,0,0,-2.1076,-2.1079,0,0,0,0,0,0,0,0,-2.0926,-2.0935,-2.0998,-2.0997,-2.0995,-2.1028,-2.1037,-2.1102,-2.1008,-2.1002,-2.0999,-2.0995,-2.1047,-2.1052,-2.1069,-2.1166,-2.1168,-2.1077,-2.108,-2.1082,-2.1084,0,0,0,0,0,0,0,-2.0922,-2.0933,-2.104,-2.0999,-2.0997,-2.0982,-2.0986,-2.1049,-2.1044,-2.1002,-2.0998,-2.1004,-2.1045,-2.1064,-2.107,-2.1169,-2.1077,-2.1081,-2.1085,-2.1087,-2.1352,-2.1355,0,0,0,0,0,0,-2.0921,-2.093,-2.1038,-2.1041,-2.0951,-2.0987,-2.0992,-2.1021,-2.1043,-2.1043,-2.1007,-2.1001,-2.1057,-2.1064,-2.1072,-2.1193,-2.1082,-2.1087,-2.109,-2.1348,-2.1353,-2.1357,0,0,0,0,0,0,-2.0918,-2.0931,-2.1036,-2.0984,-2.0996,-2.0993,-2.1026,-2.1024,-2.1042,-2.1046,-2.1045,-2.1027,-2.1054,-2.1064,-2.1141,-2.1194,-2.109,-2.1095,-2.1343,-2.1349,-2.1355,-2.1438,0,0,0,0,0,0,-2.0914,-2.0931,-2.097,-2.0985,-2.0999,-2.1104,-2.103,-2.1027,-2.1052,-2.1044,-2.1065,-2.1065,-2.1052,-2.1133,-2.1146,-2.12,-2.1099,-2.1339,-2.1346,-2.1353,-2.1431,-2.1446,-2.1459,0,0,0,0,0,-2.0909,-2.0992,-2.0972,-2.0985,-2.1048,-2.1107,-2.1115,-2.1098,-2.1056,-2.1096,-2.1098,-2.1064,-2.1187,-2.1141,-2.1155,-2.1212,-2.1335,-2.1344,-2.1352,-2.1424,-2.1443,-2.1459,0,0,0,0,0,0,-2.0983,-2.0994,-2.0972,-2.1062,-2.1084,-2.1096,-2.1145,-2.1119,-2.1154,-2.1145,-2.1123,-2.1128,-2.121,-2.1219,-2.1168,-2.1313,-2.1254,-2.1266,-2.1304,-2.1322,-2.1336,-2.1332,-2.1103,0,0,0,0,0,-2.101,-2.1057,-2.1064,-2.1143,-2.1155,-2.1149,-2.1174,-2.1158,-2.1181,-2.119,-2.1198,-2.1221,-2.1265,-2.1294,-2.1334,-2.1432,-2.1435,-2.1478,-2.1492,-2.1504,-2.1514,-2.1565,-2.1584,-2.1385,-2.1385,-2.1385,0,0,-2.1066,-2.1078,-2.1109,-2.1158,-2.1173,-2.1222,-2.1157,-2.1212,-2.1248,-2.1199,-2.1271,-2.1278,-2.1302,-2.139,-2.1428,-2.1399,-2.157,-2.1515,-2.1524,-2.1528,-2.1576,-2.1595,-2.1612,-2.1391,-2.139,-2.1389,0,0,-2.1193,-2.1207,-2.1274,-2.129,-2.1314,-2.1309,-2.1325,-2.1341,-2.1344,-2.1416,-2.1379,-2.1422,-2.1498,-2.1517,-2.1536,-2.167,-2.164,-2.1684,-2.1758,-2.1809,-2.1824,-2.1838,-2.1885,-2.1902,-2.1694,-2.1694,-2.1694,0,-2.126,-2.1332,-2.1312,-2.1369,-2.1392,-2.1348,-2.1416,-2.1433,-2.1469,-2.1486,-2.1453,-2.1546,-2.1559,-2.165,-2.1682,-2.17,-2.1718,-2.1681,-2.1824,-2.1837,-2.185,-2.1894,-2.1912,-2.1699,-2.1699,-2.1698,-2.1698,0,-2.1413,-2.1464,-2.1515,-2.155,-2.1578,-2.1641,-2.163,-2.1661,-2.1643,-2.1642,-2.1716,-2.173,-2.1772,-2.1793,-2.1777,-2.1881,-2.1862,-2.1827,-2.1767,-2.1874,-2.1915,-2.1932,-2.1707,-2.1705,-2.1703,-2.1702,0,0,-2.1588,-2.161,-2.163,-2.1644,-2.1667,-2.1706,-2.1766,-2.1807,-2.1834,-2.186,-2.191,-2.1974,-2.1941,-2.1963,-2.1949,-2.1993,-2.2097,-2.1952,-2.1952,-2.1978,-2.2212,-2.2238,-2.2258,-2.2078,-2.2081,-2.2084,-2.221,0,-2.1714,-2.1818,-2.1801,-2.1901,-2.1947,-2.1907,-2.1959,-2.1979,-2.1979,-2.2019,-2.2019,-2.2065,-2.2018,-2.2031,-2.2073,-2.2076,-2.2144,-2.2066,-2.2124,-2.2126,-2.2118,-2.228,-2.2308,-2.2426,-2.2226,-2.2229,-2.2231,0,-2.1875,-2.1907,-2.2011,-2.2026,-2.2045,-2.2092,-2.2127,-2.2165,-2.2187,-2.2184,-2.2209,-2.2186,-2.2246,-2.2186,-2.2268,-2.2216,-2.2238,-2.2243,-2.2247,-2.2251,-2.2184,-2.2287,-2.2464,-2.2481,-2.2256,-2.2254,-2.2252,0,-2.1992,-2.206,-2.2131,-2.2145,-2.2164,-2.2198,-2.2208,-2.2226,-2.2251,-2.2282,-2.2298,-2.2336,-2.2357,-2.2387,-2.2375,-2.2333,-2.246,-2.2399,-2.2459,-2.2459,-2.2487,-2.2485,-2.2668,-2.2503,-2.2503,-2.2503,-2.2502,0,-2.2134,-2.2199,-2.2183,-2.2227,-2.2299,-2.2279,-2.2351,-2.2356,-2.2372,-2.2416,-2.2384,-2.2426,-2.2408,-2.2449,-2.244,-2.2509,-2.2519,-2.2519,-2.2515,-2.2521,-2.2521,-2.2535,-2.2526,-2.2507,-2.2506,-2.2505,-2.2505,0,-2.2275,-2.2267,-2.2342,-2.2354,-2.2358,-2.2411,-2.2421,-2.2462,-2.2459,-2.2515,-2.2527,-2.2524,-2.2571,-2.2562,-2.2613,-2.2607,-2.2694,-2.2681,-2.2686,-2.2683,-2.2742,-2.2736,-2.294,-2.2965,-2.2785,-2.2787,-2.2788,0,-2.2366,-2.2415,-2.2432,-2.2459,-2.247,-2.2514,-2.2539,-2.2522,-2.255,-2.2577,-2.2615,-2.2658,-2.2692,-2.2768,-2.2771,-2.281,-2.2797,-2.2866,-2.2803,-2.2806,-2.2797,-2.2793,-2.2798,-2.2878,-2.288,-2.2881,-2.2883,0,-2.2527,-2.2521,-2.2558,-2.2594,-2.2624,-2.2652,-2.2676,-2.27,-2.2685,-2.2718,-2.2764,-2.279,-2.2842,-2.2886,-2.2922,-2.2932,-2.2905,-2.2903,-2.2918,-2.2924,-2.2925,-2.2924,-2.2719,-2.2898,-2.2896,-2.2895,-2.2895,-2.2894,-2.2645,-2.2687,-2.2705,-2.2747,-2.2763,-2.2787,-2.2825,-2.2828,-2.2866,-2.2906,-2.2894,-2.2947,-2.2967,-2.3013,-2.3027,-2.3068,-2.3043,-2.3066,-2.3071,-2.3077,-2.3084,-2.2919,-2.3075,-2.3075,-2.3074,-2.3074,-2.3074,0,-2.2804,-2.2813,-2.2852,-2.2887,-2.292,-2.2892,-2.2917,-2.2947,-2.2994,-2.3014,-2.3048,-2.3101,-2.3143,-2.3148,-2.3188,-2.322,-2.3208,-2.3231,-2.3227,-2.323,-2.3105,-2.3087,-2.3239,-2.3239,-2.3239,-2.3239,-2.3239,-2.3239,-2.289,-2.2958,-2.2954,-2.303,-2.3039,-2.309,-2.3107,-2.3128,-2.3144,-2.3205,-2.3239,-2.3242,-2.3257,-2.3297,-2.3334,-2.3334,-2.335,-2.3377,-2.3373,-2.3256,-2.3239,-2.3223,-2.3206,-2.3381,-2.3381,-2.3494,-2.3495,-2.3496]},{"header":{"parameterUnit":"m.s-1","parameterCategory":1,"la1":30.2991,"la2":30.254,"lo1":-89.0895,"lo2":-89.0444,"dy":0.0017,"dx":0.0017,"nx":28,"ny":28,"refTime":"2025-04-13T03:00:00:Z","depth":0,"parameterNumber":3,"parameterNumberName":"V-component_of_WINDS"},"data":[0,0,0,0,0,0,0,0,0,0,0,0,0,0,0,0,0,0,0,0,0,0,0,0,0,0,0,0,0,0,0,0,0,0,0,0,0,0,0,0,0,0,0,0,0,0,0,0,0,0,0,0,0,0,0,0,0,0,-1.4168,-1.4168,0,-1.4192,-1.4193,-1.4193,-1.4201,-1.4201,-1.4201,-1.4201,-1.4223,-1.4224,-1.4224,0,0,0,0,0,0,0,0,0,0,0,0,0,-1.4126,-1.4126,-1.4168,-1.4168,-1.4169,-1.4192,-1.4193,-1.4193,-1.4201,-1.4201,-1.4201,-1.4201,-1.4223,-1.4224,-1.4225,0,0,0,0,0,0,0,0,0,0,0,0,0,-1.4146,-1.4127,-1.4168,-1.4176,-1.4177,-1.4192,-1.4193,-1.4193,-1.4201,-1.4201,-1.4201,-1.4201,-1.4223,-1.4224,-1.4225,-1.4234,0,0,-1.4228,-1.4228,0,0,0,0,0,0,0,0,-1.4145,-1.4148,-1.4174,-1.4175,-1.4176,-1.4194,-1.4186,-1.4207,-1.4201,-1.4192,-1.4201,-1.4201,-1.4213,-1.4215,-1.422,-1.4235,-1.4236,-1.4228,-1.4228,-1.4229,-1.4229,0,0,0,0,0,0,0,-1.4144,-1.4147,-1.4178,-1.4175,-1.4176,-1.4177,-1.418,-1.419,-1.4203,-1.4193,-1.4193,-1.4196,-1.4214,-1.4219,-1.422,-1.4236,-1.4228,-1.4229,-1.4229,-1.423,-1.4258,-1.4258,0,0,0,0,0,0,-1.4141,-1.4146,-1.4177,-1.4178,-1.416,-1.4178,-1.4181,-1.4188,-1.4203,-1.4205,-1.4196,-1.4196,-1.4217,-1.4219,-1.4221,-1.4232,-1.4229,-1.423,-1.423,-1.4258,-1.4258,-1.4258,0,0,0,0,0,0,-1.4141,-1.4144,-1.4176,-1.4162,-1.4166,-1.4179,-1.4187,-1.4189,-1.4194,-1.4206,-1.4208,-1.4199,-1.4217,-1.422,-1.423,-1.4233,-1.423,-1.4231,-1.4258,-1.4258,-1.4258,-1.4254,0,0,0,0,0,0,-1.4139,-1.4144,-1.4148,-1.4162,-1.4167,-1.4186,-1.4187,-1.4189,-1.4196,-1.4196,-1.4209,-1.4211,-1.4217,-1.4229,-1.4231,-1.4234,-1.4232,-1.4258,-1.4258,-1.4258,-1.4254,-1.4255,-1.4255,0,0,0,0,0,-1.4138,-1.4146,-1.4148,-1.4152,-1.4173,-1.4186,-1.4188,-1.4196,-1.4196,-1.42,-1.4207,-1.421,-1.4232,-1.423,-1.4233,-1.4236,-1.4258,-1.4258,-1.4258,-1.4254,-1.4255,-1.4255,0,0,0,0,0,0,-1.4131,-1.4148,-1.4151,-1.4164,-1.4173,-1.4187,-1.4192,-1.4196,-1.4205,-1.4205,-1.4214,-1.4217,-1.4226,-1.4232,-1.4229,-1.4245,-1.4245,-1.4246,-1.4241,-1.4241,-1.4241,-1.424,-1.4233,0,0,0,0,0,-1.4131,-1.4141,-1.4155,-1.4165,-1.417,-1.418,-1.4186,-1.4191,-1.4201,-1.4205,-1.4213,-1.4222,-1.4231,-1.4236,-1.4245,-1.4255,-1.4258,-1.4259,-1.4259,-1.4259,-1.426,-1.4265,-1.4265,-1.426,-1.426,-1.426,0,0,-1.4131,-1.4142,-1.4147,-1.4164,-1.4172,-1.4181,-1.4183,-1.4193,-1.42,-1.4206,-1.4217,-1.4223,-1.4233,-1.4244,-1.4248,-1.4249,-1.4262,-1.4259,-1.4259,-1.426,-1.4265,-1.4266,-1.4266,-1.426,-1.426,-1.426,0,0,-1.4136,-1.4145,-1.4155,-1.4162,-1.4175,-1.4182,-1.4184,-1.4197,-1.4201,-1.4212,-1.4217,-1.4225,-1.424,-1.4247,-1.4252,-1.4259,-1.4262,-1.4261,-1.4262,-1.4266,-1.4267,-1.4267,-1.4269,-1.427,-1.4262,-1.4262,-1.4262,0,-1.4135,-1.415,-1.4158,-1.4168,-1.4175,-1.4181,-1.419,-1.4197,-1.4211,-1.4215,-1.4215,-1.4234,-1.4241,-1.4253,-1.4255,-1.4259,-1.4261,-1.426,-1.4266,-1.4267,-1.4267,-1.4269,-1.427,-1.4262,-1.4262,-1.4262,-1.4262,0,-1.4147,-1.4157,-1.4162,-1.4177,-1.4184,-1.4193,-1.4202,-1.4208,-1.4212,-1.4219,-1.4229,-1.4238,-1.4249,-1.4252,-1.4256,-1.4264,-1.4263,-1.4265,-1.4265,-1.4268,-1.4269,-1.427,-1.4261,-1.4261,-1.4261,-1.4261,0,0,-1.4148,-1.4167,-1.4169,-1.4175,-1.4189,-1.4196,-1.4205,-1.4216,-1.4221,-1.423,-1.4237,-1.4249,-1.425,-1.4256,-1.4261,-1.4265,-1.4269,-1.4266,-1.4266,-1.4266,-1.4278,-1.4276,-1.4277,-1.4271,-1.4271,-1.4272,-1.4277,0,-1.4155,-1.4172,-1.418,-1.4193,-1.4202,-1.4208,-1.4215,-1.4224,-1.423,-1.4237,-1.4243,-1.4252,-1.4253,-1.4257,-1.4261,-1.4268,-1.4272,-1.4268,-1.4277,-1.4277,-1.4274,-1.4278,-1.4277,-1.4282,-1.4277,-1.4278,-1.4278,0,-1.4165,-1.4175,-1.4189,-1.4201,-1.4205,-1.4211,-1.4222,-1.4229,-1.4238,-1.4242,-1.4249,-1.4254,-1.4262,-1.4261,-1.4272,-1.4269,-1.4273,-1.4277,-1.4277,-1.4278,-1.4278,-1.4279,-1.4283,-1.4284,-1.4279,-1.4279,-1.4279,0,-1.4164,-1.4181,-1.4191,-1.4196,-1.4211,-1.4215,-1.4221,-1.423,-1.4236,-1.4245,-1.4248,-1.4257,-1.4262,-1.4269,-1.4275,-1.4274,-1.4285,-1.4285,-1.4288,-1.4288,-1.429,-1.429,-1.4295,-1.4293,-1.4293,-1.4293,-1.4293,0,-1.417,-1.4179,-1.4191,-1.4197,-1.4206,-1.4215,-1.4223,-1.4229,-1.4237,-1.4244,-1.425,-1.4256,-1.4264,-1.4271,-1.4276,-1.4284,-1.4286,-1.4289,-1.429,-1.4288,-1.4288,-1.4291,-1.4291,-1.4293,-1.4293,-1.4293,-1.4293,0,-1.4171,-1.418,-1.4192,-1.4204,-1.4208,-1.4214,-1.4224,-1.423,-1.4236,-1.4245,-1.4247,-1.4256,-1.4265,-1.4272,-1.4282,-1.4286,-1.4294,-1.4295,-1.4291,-1.4291,-1.4294,-1.4293,-1.4301,-1.4302,-1.4299,-1.4299,-1.4299,0,-1.4175,-1.4181,-1.4195,-1.42,-1.4206,-1.4215,-1.4221,-1.4229,-1.4235,-1.4245,-1.425,-1.4258,-1.4266,-1.4279,-1.4286,-1.4294,-1.4295,-1.4297,-1.4297,-1.4295,-1.4295,-1.4295,-1.4295,-1.4297,-1.4297,-1.4297,-1.4297,0,-1.418,-1.4183,-1.4192,-1.4203,-1.421,-1.4218,-1.4226,-1.423,-1.4239,-1.4245,-1.4254,-1.426,-1.4271,-1.428,-1.4289,-1.4294,-1.4297,-1.4298,-1.4299,-1.4297,-1.4294,-1.4295,-1.4291,-1.4297,-1.4297,-1.4297,-1.4297,-1.4297,-1.4182,-1.4187,-1.4198,-1.4207,-1.4214,-1.4222,-1.4228,-1.4235,-1.4243,-1.4253,-1.4257,-1.4266,-1.4274,-1.4286,-1.4291,-1.4298,-1.4298,-1.43,-1.43,-1.43,-1.43,-1.4293,-1.4299,-1.4299,-1.4299,-1.4299,-1.4299,0,-1.4186,-1.4193,-1.4202,-1.4214,-1.4221,-1.4224,-1.4233,-1.4238,-1.4247,-1.4254,-1.4262,-1.4272,-1.428,-1.4287,-1.4295,-1.4299,-1.4301,-1.4301,-1.4301,-1.4302,-1.4299,-1.4297,-1.4299,-1.4299,-1.4299,-1.4299,-1.4299,-1.4299,-1.419,-1.42,-1.4205,-1.4218,-1.4224,-1.4234,-1.4239,-1.4245,-1.4252,-1.4263,-1.427,-1.4275,-1.4282,-1.4291,-1.4298,-1.43,-1.4302,-1.4302,-1.4305,-1.4302,-1.4302,-1.4302,-1.43,-1.4303,-1.4303,-1.4307,-1.4307,-1.4307]}]]